Phnom Penh, Cambodia

7:19 PM +07 on July 23, 2017 (GMT +0700)
Pochentong International

Weather History for VDPP - August, 2014

Change the Weather History Date:

Saturday, August 9, 2014

  Actual Average Record
Temperature  
Mean Temperature 87 °F -  
Max Temperature 96 °F 87 °F 96 °F (2014)
Min Temperature 78 °F 77 °F 75 °F (2008)
Cooling Degree Days 22    
Growing Degree Days 37 (Base 50)    
Moisture  
Dew Point 71 °F    
Average Humidity 59    
Maximum Humidity 89    
Minimum Humidity 39    
Precipitation  
Precipitation 0.00 in - - ()
Sea Level Pressure  
Sea Level Pressure 29.80 in    
Wind  
Wind Speed 6 mph ()    
Max Wind Speed 13 mph    
Max Gust Speed -    
Visibility 6.0 miles    
Events      
Averages and records for this station are not official NWS values.
T = Trace of Precipitation, MM = Missing Value Source: Averaged Metar Reports

Daily Weather History Graph

Daily Weather History Graph

Search for Another Location

Airport or City:

Trip Planner

Search our weather history database for the weather conditions in past years. The results will help you decide how hot, cold, wet, or windy it might be!

Date:

Astronomy

Aug. 09, 2014 Rise Set
Actual Time 5:49 AM +07 6:22 PM +07
Civil Twilight 5:27 AM +07 6:44 PM +07
Nautical Twilight 5:01 AM +07 7:10 PM +07
Astronomical Twilight 4:35 AM +07 7:36 PM +07
Moon 4:57 PM +07 (8/9) 3:57 AM +07 (8/9)
Length of Visible Light 13h 17m
Length of Day
12h 33m
Waxing Gibbous, 96% of the Moon is Illuminated
Aug 9
Waxing Gibbous
Aug 11
Full
Aug 17
Last Quarter
Aug 25
New
Sep 2
First Quarter

Hourly Weather History & Observations

Time (+07) Temp. Heat Index Dew Point Humidity Pressure Visibility Wind Dir Wind Speed Gust Speed Precip Events Conditions
12:00 AM 80.6 °F 85.4 °F 73.4 °F 79% 29.83 in 6.2 mi SSW 4.6 mph - N/A   Scattered Clouds
12:30 AM 80.6 °F 85.4 °F 73.4 °F 79% 29.80 in 6.2 mi SSW 4.6 mph - N/A   Scattered Clouds
1:00 AM 80.6 °F 85.4 °F 73.4 °F 79% 29.80 in 6.2 mi SW 3.5 mph - N/A   Scattered Clouds
5:30 AM 80.6 °F 85.4 °F 73.4 °F 79% 29.77 in 6.2 mi SSW 3.5 mph - N/A   Scattered Clouds
6:30 AM 78.8 °F - 73.4 °F 83% 29.77 in 6.2 mi South 6.9 mph - N/A   Scattered Clouds
7:00 AM 80.6 °F 87.1 °F 77.0 °F 89% 29.83 in 6.2 mi South 5.8 mph - N/A   Mostly Cloudy
7:30 AM 82.4 °F 90.9 °F 77.0 °F 84% 29.83 in 6.2 mi SSW 6.9 mph - N/A   Scattered Clouds
8:00 AM 82.4 °F 90.9 °F 77.0 °F 84% 29.83 in 6.2 mi SSW 9.2 mph - N/A   Mostly Cloudy
8:30 AM 86.0 °F 95.1 °F 75.2 °F 70% 29.83 in 6.2 mi SW 8.1 mph - N/A   Mostly Cloudy
9:00 AM 86.0 °F 95.1 °F 75.2 °F 70% 29.83 in 6.2 mi SW 6.9 mph - N/A   Mostly Cloudy
9:30 AM 87.8 °F 95.6 °F 73.4 °F 62% 29.83 in 6.2 mi WSW 6.9 mph - N/A   Scattered Clouds
10:00 AM 87.8 °F 93.8 °F 71.6 °F 58% 29.83 in 6.2 mi WSW 8.1 mph - N/A   Scattered Clouds
10:30 AM 89.6 °F 96.2 °F 71.6 °F 55% 29.83 in 6.2 mi West 8.1 mph - N/A   Scattered Clouds
11:00 AM 89.6 °F 96.2 °F 71.6 °F 55% 29.83 in 6.2 mi West 6.9 mph - N/A   Scattered Clouds
11:30 AM 91.4 °F 98.4 °F 71.6 °F 52% 29.83 in 6.2 mi WSW 9.2 mph - N/A   Scattered Clouds
12:00 PM 91.4 °F 98.4 °F 71.6 °F 52% 29.83 in 6.2 mi WSW 9.2 mph - N/A   Scattered Clouds
12:30 PM 93.2 °F 96.2 °F 66.2 °F 41% 29.83 in 6.2 mi West 10.4 mph - N/A   Scattered Clouds
1:00 PM 93.2 °F 97.7 °F 68.0 °F 44% 29.80 in 6.2 mi West 12.7 mph - N/A   Scattered Clouds
1:30 PM 93.2 °F 97.7 °F 68.0 °F 44% 29.80 in 6.2 mi West 10.4 mph - N/A   Scattered Clouds
2:00 PM 93.2 °F 97.7 °F 68.0 °F 44% 29.80 in 6.2 mi West 9.2 mph - N/A   Scattered Clouds
2:30 PM 95.0 °F 99.5 °F 68.0 °F 41% 29.77 in 6.2 mi West 11.5 mph - N/A   Scattered Clouds
3:00 PM 95.0 °F 98.5 °F 66.2 °F 39% 29.77 in 6.2 mi West 5.8 mph - N/A   Mostly Cloudy
3:30 PM 96.8 °F 101.8 °F 68.0 °F 39% 29.77 in 6.2 mi WSW 12.7 mph - N/A   Mostly Cloudy
4:00 PM 95.0 °F 98.5 °F 66.2 °F 39% 29.74 in 6.2 mi WSW 10.4 mph - N/A   Mostly Cloudy
4:30 PM 93.2 °F 96.2 °F 66.2 °F 41% 29.74 in 6.2 mi West 11.5 mph - N/A   Mostly Cloudy
5:00 PM 93.2 °F 96.2 °F 66.2 °F 41% 29.74 in 6.2 mi WSW 9.2 mph - N/A   Mostly Cloudy
5:30 PM 91.4 °F 95.4 °F 68.0 °F 46% 29.74 in 6.2 mi WSW 10.4 mph - N/A   Mostly Cloudy
6:00 PM 91.4 °F 96.8 °F 69.8 °F 49% 29.77 in 6.2 mi WSW 8.1 mph - N/A   Mostly Cloudy
6:30 PM 89.6 °F 94.7 °F 69.8 °F 52% 29.77 in 6.2 mi WSW 6.9 mph - N/A   Mostly Cloudy
7:00 PM 89.6 °F 94.7 °F 69.8 °F 52% 29.77 in 5.6 mi WSW 6.9 mph - N/A   Mostly Cloudy
7:30 PM 87.8 °F 92.6 °F 69.8 °F 55% 29.77 in 5.6 mi WSW 6.9 mph - N/A   Mostly Cloudy
8:00 PM 87.8 °F 92.6 °F 69.8 °F 55% 29.80 in 5.6 mi West 6.9 mph - N/A   Mostly Cloudy
8:30 PM 86.0 °F 89.4 °F 68.0 °F 55% 29.80 in 5.6 mi West 4.6 mph - N/A   Mostly Cloudy
9:00 PM 84.2 °F 88.4 °F 69.8 °F 62% 29.83 in 5.6 mi Variable 3.5 mph - N/A   Mostly Cloudy
9:30 PM 84.2 °F 88.4 °F 69.8 °F 62% 29.83 in 5.6 mi Variable 1.2 mph - N/A   Mostly Cloudy
10:00 PM 84.2 °F 89.6 °F 71.6 °F 66% 29.83 in 5.6 mi Variable 2.3 mph - N/A   Mostly Cloudy
10:30 PM 82.4 °F 87.2 °F 71.6 °F 70% 29.83 in 5.6 mi Variable 2.3 mph - N/A   Mostly Cloudy
11:00 PM 82.4 °F 88.2 °F 73.4 °F 74% 29.83 in 5.6 mi Variable 2.3 mph - N/A   Mostly Cloudy
11:30 PM 82.4 °F 88.2 °F 73.4 °F 74% 29.83 in 5.6 mi West 4.6 mph - N/A   Mostly Cloudy